Skip Page Navigation
NASA JPL Caltech
NASA Logo - Jet Propulsion Laboratory + View the NASA Portal
+ Center for Near-Earth Object Studies
JPL Home Earth Solar System Stars & Galaxies Technology
JPL Solar System Dynamics
BODIES ORBITS EPHEMERIDES TOOLS PHYSICAL DATA DISCOVERY FAQ SITE MAP
JPL Small-Body Database Browser
Search: [ help ]  
86805 (2000 GR115)
Classification: Main-belt Asteroid          SPK-ID: 2086805
Ephemeris | Orbit Diagram | Orbital Elements | Mission Design | Physical Parameters | Discovery Circumstances | Close-Approach Data ]

[ show orbit diagram ]
Orbital Elements at Epoch 2459000.5 (2020-May-31.0) TDB
Reference: JPL 19 (heliocentric ecliptic J2000)
 Element Value Uncertainty (1-sigma)   Units 
e .204958887780508 3.0113e-08  
a 2.290109058145614 9.0129e-09 au
q 1.820730852692022 6.78e-08 au
i 3.755884776223093 3.6873e-06 deg
node 79.18470419096971 7.2564e-05 deg
peri 209.8065348764948 7.3504e-05 deg
M 221.3224585044506 1.314e-05 deg
tp 2459488.125385537622
(2021-Sep-30.62538554)
4.7433e-05 TDB
period 1265.851246715226
3.47
7.4728e-06
2.046e-08
d
yr
n .284393605436791 1.6789e-09 deg/d
Q 2.759487263599206 1.086e-08 au
  Orbit Determination Parameters
   # obs. used (total)      660  
   data-arc span      9818 days (26.88 yr)  
   first obs. used      1993-03-17  
   last obs. used      2020-02-02  
   planetary ephem.      DE431  
   SB-pert. ephem.      SB431-N16  
   condition code      0  
   norm. resid. RMS      .55516  
   source      ORB  
   producer      Otto Matic  
   solution date      2020-Feb-23 20:55:21  

Additional Information
 Earth MOID = .805564 au 
 Jupiter MOID = 2.41515 au 
 T_jup = 3.568 
[ show covariance matrix ]

Ephemeris | Orbit Diagram | Orbital Elements | Mission Design | Physical Parameters | Discovery Circumstances | Close-Approach Data ]

Physical Parameter Table
Parameter Symbol Value Units Sigma Reference Notes
absolute magnitude H 16.5   n/a MPO417419  

86805 (2000 GR115)          Discovered 2000-Apr-08 by LINEAR at Socorro
Reference: 20040830/Numbers.arcLast Updated: 2004-09-06

[ show close-approach data ]
Alternate Designations
 2000 GR115 = 1993 FQ53 = 2001 UL82 
Ephemeris | Orbit Diagram | Orbital Elements | Mission Design | Physical Parameters | Discovery Circumstances | Close-Approach Data ]
ABOUT SSD CREDITS/AWARDS PRIVACY/COPYRIGHT GLOSSARY LINKS
FirstGov 2020-Sep-20 13:37 UT
(server date/time)  
NASA Home Page
Site Manager:   Ryan S. Park
Webmaster  Alan B. Chamberlin